Voltar ao catálogo

STARLINK-31439

AtivoComunicaçõesVLEO
NORAD 59178·PAYLOAD·🇺🇸 United States

Lançado Mar 10, 2024 de Cape Canaveral Space Force Station

Loading…

Próximas Passagens (próximas 24 horas)

TLE

AtualizadoSource: CelesTrak SupGP

Época: Sep 14, 2026, 20:54 UTC

1 59178C 24045A   26257.87131944 -.00000735  00000+0 -26622-4 0  2579
2 59178  43.0020 100.8530 0001298 274.2217  40.8218 15.27570474    19

Acompanhe STARLINK-31439 em tempo real com AllMySat

Download on the App Store